Wind_Speed
43 43 43 44 44 44 45 45 45 45 46 47 47 47 48 48 48 48 48 48 47 47 48 48 48 48 48 47 47 46 46 46 46 45 45 45 45 44 44 44 45 45 45
44 44 44 44 45 45 46 46 47 47 47 47 48 49 49 49 49 50 50 49 49 50 49 49 49 49 48 48 48 47 47 47 47 47 46 46 46 45 45 44 44 45 46
45 46 46 46 46 47 47 47 48 49 49 50 50 50 51 51 51 51 51 51 51 51 50 50 50 49 49 49 48 48 48 47 47 47 46 46 46 46 46 45 45 46 46
47 48 48 48 48 48 49 49 50 50 51 52 52 52 52 52 53 53 53 52 52 51 50 50 49 49 50 49 49 49 49 48 48 47 46 46 46 47 47 47 46 46 46
48 48 49 49 50 50 50 50 51 52 52 53 53 53 54 54 54 54 53 52 52 51 50 49 49 48 49 49 49 50 50 49 49 48 48 48 47 47 48 48 47 47 47
48 48 49 49 50 51 51 52 52 52 53 53 53 53 53 53 53 53 52 51 50 50 50 50 50 50 49 49 48 49 49 49 48 48 48 49 49 49 49 49 49 49 48
46 47 48 49 49 50 50 51 51 51 51 51 51 52 52 52 53 52 52 51 51 50 50 50 50 50 50 50 49 48 49 49 49 50 50 50 50 51 51 51 51 50 50
45 46 46 47 48 49 49 49 48 49 49 49 50 51 51 52 52 52 52 51 51 51 51 51 51 51 51 51 51 50 50 50 50 51 51 51 52 52 52 52 51 51 51
46 46 46 46 47 48 48 48 48 48 48 49 49 50 50 50 51 52 52 52 52 52 52 52 52 51 52 52 52 52 52 52 52 52 52 52 52 52 52 51 51 51 50
46 46 47 47 47 47 48 48 48 48 48 49 49 49 49 49 50 51 52 52 51 51 51 52 52 52 53 53 53 53 53 53 53 53 52 52 51 51 51 51 51 50 50
47 47 47 47 48 48 48 48 48 49 49 48 48 49 49 49 49 50 50 51 50 50 50 51 51 52 53 54 54 53 53 52 52 52 51 50 50 50 50 50 50 49 49
47 47 48 48 48 48 48 48 48 48 48 48 48 48 49 49 49 50 50 50 51 51 51 51 52 53 53 53 52 52 51 51 50 50 49 49 49 49 49 49 49 49 48
45 45 46 47 47 47 47 47 47 47 47 47 47 48 48 49 49 50 50 50 50 50 50 50 50 51 52 51 51 50 50 49 48 48 48 48 49 49 50 50 50 49 49
45 45 45 45 46 45 45 46 46 46 46 46 45 46 46 47 47 48 48 49 48 48 47 47 47 48 49 49 49 49 48 48 48 48 48 49 49 49 50 50 50 49 49
45 45 45 45 45 44 44 45 45 45 45 45 45 45 46 45 46 46 46 46 46 46 46 46 46 46 46 46 46 46 47 47 46 46 46 47 47 48 48 48 48 48 47
44 44 44 43 43 43 43 43 43 44 45 45 45 45 45 44 44 44 44 44 44 45 45 45 45 45 45 45 45 45 45 44 44 44 44 44 44 44 45 45 45 45 45
42 42 42 42 42 42 41 41 41 42 42 43 44 44 43 43 43 43 43 43 43 43 43 43 43 43 44 44 44 43 42 42 42 43 43 44 44 44 44 44 45 45 45
41 41 41 41 41 41 40 40 40 39 40 40 41 42 42 43 42 42 42 42 42 43 43 43 43 43 43 43 43 43 42 42 42 42 43 43 43 43 44 44 44 44 44
39 38 39 39 39 39 39 39 38 38 38 39 39 40 41 41 41 41 41 42 42 42 43 43 43 43 43 43 43 43 43 43 43 42 42 43 42 42 42 43 43 44 44
36 37 37 38 38 38 38 37 37 37 38 38 38 39 39 40 40 40 41 41 41 41 41 42 41 41 41 42 42 43 43 43 44 43 43 42 42 42 42 42 43 43 43
35 36 37 37 37 36 36 36 37 37 38 38 38 38 38 39 39 40 41 41 41 40 40 40 40 40 41 41 41 42 42 42 43 43 43 43 42 42 41 41 41 42 42
36 36 36 36 36 36 36 36 36 37 37 37 37 38 38 38 39 39 39 40 40 40 40 40 40 41 41 41 41 41 41 42 42 42 42 42 42 41 41 40 40 40 41
37 37 37 36 36 36 36 36 36 36 36 37 37 37 37 37 38 38 38 38 38 39 40 40 40 40 41 41 41 41 41 41 41 41 41 41 41 41 40 40 40 40 41
37 37 37 36 35 35 34 35 35 36 36 37 37 37 37 37 37 38 38 38 38 39 40 40 40 40 41 41 41 41 41 41 41 41 41 41 41 41 40 40 40 40 40
35 35 36 35 35 35 35 35 35 35 36 36 36 36 36 36 37 37 37 38 39 39 39 40 40 40 40 40 40 40 41 41 41 41 41 40 40 40 40 40 39 39 39
34 34 34 33 33 34 34 35 35 35 35 35 35 35 35 36 36 37 38 38 38 38 38 38 38 38 38 39 39 40 40 40 40 40 40 39 39 39 39 38 38 38 38
Wind_Direction
261 261 262 262 262 262 262 263 263 264 263 264 264 265 265 264 265 266 267 267 268 268 269 270 270 270 270 271 272 273 272 273 273 273 273 273 273 273 273 273 272 271 271
262 263 263 264 264 264 264 265 265 265 265 266 266 266 266 266 267 267 267 267 268 268 269 270 270 270 271 270 271 271 271 272 272 272 272 272 272 272 272 271 271 272 272
262 263 263 264 265 265 265 265 266 266 267 267 267 268 268 268 267 268 268 267 266 267 268 269 269 270 271 270 270 271 272 272 272 271 272 272 272 271 271 271 271 271 272
263 264 264 265 265 265 266 266 267 267 267 267 268 268 268 267 267 267 268 267 267 267 267 267 268 270 270 269 270 270 271 271 271 271 272 272 271 271 271 270 270 270 271
264 265 265 265 266 266 266 267 267 267 267 267 268 268 267 267 267 268 268 268 267 267 266 266 266 268 268 269 270 270 270 270 270 270 271 271 271 271 270 270 270 269 269
265 265 265 265 265 266 266 267 267 268 268 267 267 267 267 268 268 268 268 268 268 267 267 266 267 267 268 269 270 270 270 269 270 270 270 271 271 271 271 270 270 269 269
267 267 266 266 266 266 266 267 267 267 267 267 267 267 267 267 268 268 268 268 267 268 268 267 267 267 268 268 268 269 269 269 270 270 270 270 270 271 271 270 270 269 269
268 268 268 268 267 267 267 268 268 267 267 267 268 268 268 268 268 268 268 268 268 268 269 268 268 268 268 268 268 268 269 269 270 270 270 270 270 271 271 270 270 270 270
269 269 269 270 270 269 268 268 269 269 269 268 269 269 269 268 268 268 267 267 267 268 269 269 268 267 268 268 269 269 270 270 271 271 271 270 270 271 271 270 271 271 270
270 270 270 270 270 270 269 269 270 270 269 269 269 269 269 268 268 268 267 267 267 268 268 268 268 268 267 268 269 269 270 270 271 272 271 271 271 272 272 272 272 272 271
270 270 270 270 270 270 270 270 269 269 269 269 269 269 269 269 268 268 267 267 266 267 267 267 267 267 267 268 268 269 269 270 270 271 271 272 272 273 272 272 272 272 272
271 270 270 270 269 270 269 269 269 269 269 269 269 269 269 269 268 267 267 267 267 267 267 267 267 268 269 269 269 269 270 270 270 270 270 271 273 273 273 272 273 273 273
272 271 271 270 269 269 269 269 269 269 269 270 270 270 269 269 268 268 267 266 267 268 268 267 268 268 269 269 269 269 270 269 269 270 271 272 273 273 272 273 272 273 274
273 272 271 271 270 270 270 270 270 269 269 270 271 271 271 269 268 268 268 267 267 267 267 268 268 268 269 269 270 269 269 270 270 270 271 272 272 273 273 273 273 273 274
273 273 272 271 270 270 270 270 270 270 270 270 271 272 271 270 269 269 268 267 266 266 266 266 267 269 269 269 269 269 270 270 270 271 271 272 272 273 273 273 273 273 273
274 273 273 272 271 271 271 271 271 271 271 271 271 272 271 270 270 270 268 267 266 266 266 266 267 268 269 269 269 269 270 270 271 271 272 273 273 273 273 273 273 273 273
274 273 273 272 272 272 272 272 271 271 272 272 272 271 271 271 270 270 269 267 267 266 266 266 266 267 268 268 268 268 269 270 271 272 272 273 275 275 274 274 274 274 274
273 273 273 273 273 273 272 272 272 272 272 273 273 272 272 272 271 270 269 268 267 267 267 266 265 266 266 267 267 267 268 269 271 272 273 274 275 275 275 275 275 276 276
273 273 273 274 274 273 273 272 272 273 273 273 274 274 273 272 271 271 270 269 268 267 267 266 266 265 265 266 267 267 268 269 270 271 273 274 275 276 276 276 277 277 277
274 274 274 275 275 275 273 272 272 273 274 274 274 274 274 273 272 272 271 270 269 268 267 266 266 265 265 266 267 268 268 269 270 271 272 274 275 277 278 279 279 279 279
276 276 276 276 275 274 273 273 274 274 275 275 276 276 275 275 273 273 272 271 269 268 267 267 267 267 267 268 269 269 269 269 270 270 272 274 275 277 278 279 279 279 278
277 277 277 276 274 273 273 273 274 275 275 276 276 277 276 275 275 274 273 271 270 268 267 267 267 268 268 269 270 270 270 271 271 271 272 273 274 275 276 278 279 279 279
277 277 276 275 274 273 274 274 275 275 276 276 276 278 277 276 276 275 274 272 271 269 269 268 268 269 269 269 269 270 271 271 272 272 272 272 273 274 275 276 278 279 279
277 276 275 275 275 274 274 274 275 276 276 276 277 277 277 276 275 274 274 273 272 271 270 269 269 269 269 270 270 270 270 271 272 272 271 271 271 273 274 276 277 278 279
277 276 276 275 274 274 274 274 276 277 277 278 278 278 278 277 276 275 274 274 273 272 270 269 268 268 269 269 269 269 270 271 271 271 271 271 272 272 274 275 276 277 279
276 275 274 274 274 274 274 274 275 277 278 279 279 278 278 277 277 276 276 276 274 272 270 269 268 269 269 269 270 270 270 271 271 271 271 271 271 272 272 273 275 276 278
Height
5613 5614 5616 5617 5618 5620 5621 5622 5623 5624 5625 5626 5627 5628 5629 5630 5630 5632 5632 5633 5633 5633 5633 5633 5633 5633 5633 5633 5632 5632 5632 5631 5631 5632 5632 5631 5631 5631 5630 5630 5630 5630 5630
5602 5603 5604 5605 5606 5608 5609 5610 5611 5612 5613 5614 5615 5615 5616 5616 5617 5618 5619 5619 5620 5620 5619 5619 5620 5619 5620 5620 5619 5619 5619 5619 5619 5619 5619 5618 5618 5618 5617 5617 5617 5617 5617
5590 5591 5592 5593 5594 5595 5596 5597 5598 5599 5600 5601 5601 5602 5602 5603 5603 5604 5605 5605 5605 5606 5605 5606 5606 5606 5606 5606 5606 5606 5606 5605 5605 5605 5606 5605 5605 5604 5604 5604 5604 5604 5604
5577 5579 5580 5581 5582 5583 5583 5584 5585 5586 5586 5587 5587 5588 5588 5589 5589 5589 5590 5590 5591 5591 5591 5592 5592 5592 5593 5593 5593 5593 5592 5592 5592 5592 5592 5592 5592 5591 5591 5591 5591 5591 5591
5564 5565 5566 5567 5568 5569 5570 5570 5571 5571 5572 5572 5573 5573 5573 5574 5574 5574 5575 5575 5576 5576 5577 5578 5578 5578 5578 5579 5579 5579 5578 5578 5578 5578 5578 5578 5578 5578 5577 5577 5578 5578 5578
5551 5551 5552 5553 5554 5554 5555 5556 5556 5556 5557 5557 5558 5558 5558 5559 5559 5559 5560 5560 5561 5562 5562 5563 5563 5564 5564 5565 5565 5564 5564 5564 5564 5564 5564 5564 5564 5563 5563 5563 5563 5564 5565
5536 5537 5537 5538 5539 5539 5540 5540 5541 5541 5541 5542 5542 5543 5543 5544 5544 5544 5545 5545 5546 5547 5547 5548 5549 5549 5550 5550 5550 5550 5550 5550 5550 5550 5550 5549 5549 5549 5549 5548 5548 5548 5549
5522 5523 5523 5523 5524 5524 5525 5526 5526 5526 5527 5527 5528 5528 5528 5529 5529 5529 5530 5530 5531 5532 5533 5533 5534 5534 5535 5535 5535 5535 5535 5535 5535 5535 5535 5534 5534 5533 5533 5533 5532 5533 5534
5509 5509 5509 5509 5509 5510 5510 5511 5511 5512 5512 5512 5513 5513 5513 5514 5514 5514 5515 5515 5516 5517 5517 5518 5518 5519 5520 5520 5520 5521 5520 5520 5519 5519 5519 5518 5518 5517 5516 5516 5517 5517 5518
5495 5495 5495 5495 5495 5496 5496 5496 5496 5497 5497 5498 5498 5498 5499 5499 5499 5499 5499 5500 5501 5502 5502 5502 5503 5504 5504 5504 5504 5505 5505 5505 5504 5503 5503 5503 5502 5501 5501 5501 5501 5501 5502
5481 5481 5481 5481 5481 5481 5481 5481 5482 5482 5483 5483 5484 5484 5484 5484 5484 5484 5484 5484 5485 5486 5486 5487 5487 5488 5488 5488 5488 5489 5489 5488 5488 5488 5488 5487 5487 5486 5486 5485 5485 5485 5486
5466 5466 5466 5466 5466 5466 5466 5466 5466 5467 5467 5468 5468 5469 5469 5468 5468 5468 5468 5469 5469 5470 5471 5472 5472 5472 5472 5472 5472 5473 5473 5472 5472 5472 5473 5473 5472 5472 5471 5471 5470 5470 5471
5452 5452 5451 5451 5451 5451 5451 5452 5452 5452 5452 5453 5453 5454 5454 5453 5453 5453 5453 5453 5454 5454 5455 5456 5456 5456 5456 5456 5457 5457 5457 5457 5457 5457 5458 5458 5457 5457 5456 5456 5456 5456 5456
5438 5438 5437 5437 5437 5437 5437 5437 5437 5437 5438 5438 5438 5438 5438 5438 5438 5438 5438 5438 5439 5439 5440 5440 5441 5441 5441 5441 5442 5442 5442 5442 5442 5443 5443 5442 5442 5442 5442 5442 5442 5442 5443
5424 5423 5423 5423 5423 5423 5423 5423 5423 5423 5423 5423 5423 5423 5423 5424 5423 5423 5423 5423 5424 5425 5425 5426 5427 5427 5427 5427 5427 5427 5427 5428 5428 5428 5428 5427 5427 5427 5427 5427 5428 5428 5428
5410 5409 5409 5409 5409 5409 5409 5409 5408 5408 5408 5408 5408 5408 5408 5408 5408 5408 5408 5409 5409 5410 5411 5412 5413 5413 5413 5414 5414 5414 5414 5414 5414 5414 5414 5414 5414 5414 5414 5413 5413 5414 5414
5396 5396 5395 5395 5395 5395 5395 5395 5395 5395 5394 5394 5393 5393 5393 5394 5394 5394 5394 5394 5395 5396 5397 5398 5399 5399 5399 5400 5400 5400 5401 5401 5401 5401 5401 5401 5401 5401 5401 5400 5400 5400 5400
5383 5382 5382 5382 5382 5381 5381 5381 5381 5381 5381 5380 5380 5379 5379 5379 5379 5380 5380 5381 5382 5382 5383 5384 5385 5385 5386 5386 5387 5387 5387 5388 5388 5388 5388 5388 5388 5387 5387 5387 5387 5386 5386
5370 5370 5369 5369 5369 5369 5368 5368 5368 5368 5368 5367 5367 5366 5365 5365 5365 5366 5366 5367 5368 5368 5369 5369 5370 5371 5372 5372 5373 5374 5374 5374 5375 5375 5375 5375 5374 5374 5374 5373 5373 5372 5372
5358 5358 5357 5357 5356 5356 5356 5356 5356 5355 5355 5355 5354 5353 5352 5352 5352 5352 5352 5353 5353 5354 5355 5356 5356 5357 5358 5359 5359 5360 5360 5361 5361 5361 5362 5361 5361 5361 5360 5360 5359 5358 5357
5347 5346 5345 5345 5344 5344 5344 5343 5343 5343 5342 5342 5341 5340 5340 5340 5339 5339 5339 5339 5340 5340 5341 5342 5343 5344 5344 5345 5346 5346 5347 5347 5347 5348 5348 5348 5348 5347 5347 5346 5345 5344 5343
5336 5335 5334 5333 5332 5332 5331 5331 5331 5330 5330 5329 5328 5328 5327 5326 5326 5326 5326 5326 5326 5327 5327 5328 5329 5330 5331 5331 5332 5333 5333 5334 5334 5334 5334 5334 5334 5334 5333 5332 5332 5331 5330
5324 5323 5322 5321 5320 5319 5319 5319 5318 5318 5317 5317 5316 5315 5314 5314 5313 5313 5313 5313 5313 5313 5314 5315 5316 5316 5317 5318 5318 5319 5319 5320 5320 5320 5320 5320 5320 5320 5320 5319 5318 5318 5317
5312 5311 5310 5309 5308 5307 5307 5307 5307 5306 5305 5305 5304 5303 5302 5301 5301 5300 5300 5300 5300 5300 5301 5301 5302 5303 5304 5304 5305 5305 5306 5306 5306 5306 5307 5307 5307 5307 5306 5306 5305 5304 5304
5299 5298 5297 5297 5296 5296 5296 5295 5295 5294 5293 5292 5291 5291 5290 5289 5288 5288 5287 5287 5287 5287 5287 5288 5289 5289 5290 5291 5291 5291 5292 5292 5293 5293 5293 5293 5293 5293 5293 5292 5292 5292 5291
5288 5287 5286 5285 5285 5284 5284 5283 5283 5282 5281 5280 5279 5278 5277 5276 5276 5275 5274 5274 5274 5274 5274 5274 5275 5276 5276 5277 5278 5278 5278 5278 5279 5279 5279 5280 5280 5280 5279 5279 5279 5279 5278